Погода в Понтрезине

Швейцария     46°29′36″N   9°54′07″E
темп.,
°C
ветер,
м/с
пор.,
м/с
влажн.,
%
обл.,
%
осадки,
мм/ч
давл.,
гПа
погр.,
м
8 декабря, ср
ср801:00−13ююз447270 0.0 101532
04:00−14ююз4483100 0.0 101323
07:00−11ю4590100 0.1 100994
10:00−8ююв3494100 0.8 1004155
13:00−7юв3395100 3.4 999256
16:00−8ю2296100 5.0 998198
19:00−9ю2396100 9.8 1000115
22:00−10с3496100 3.5 1000174
9 декабря, чт
чт901:00−11с4496100 6.1 1002131
04:00−12ссз4796100 1.3 1004222
07:00−12ссз4496100 2.1 1005117
10:00−11ссз4792100 0.4 1006585
13:00−10с5790100 0.9 1006694
16:00−13ссз4397100 0.2 100929
19:00−17ссз3310099 0.3 101520
22:00−21сз2210097 0.0 101911
10 декабря, пт
пт1001:00−21з129773 0.0 101910
04:00−19ююз334019 0.0 10139
07:00−17ююз4461100 0.0 101117
10:00−12ю5683100 0.0 1007250
13:00−11ю458088 0.0 1004392
16:00−13ю2290100 0.0 100514
19:00−15ссз2285100 0.0 100817
22:00−15ссз3386100 0.0 101019
11 декабря, сб
сб1101:00−14ссз4498100 0.1 101142
04:00−16ссз4410099 0.1 101436
07:00−18ссз4410099 0.1 101928
10:00−14ссз459983 0.0 1019112
13:00−11ссз569060 0.0 1017317
16:00−13ссз569886 0.1 102264
19:00−17ссз5410098 0.1 102832
22:00−19ссз44100100 0.1 103226
12 декабря, вс
вс1201:00−19ссз44100100 0.1 103451
04:00−18ссз4410098 0.0 103545
07:00−19ссз339674 0.0 103825
10:00−13ссз447359 0.0 103255
13:00−8ссз44605 0.0 1027152
16:00−12сз4368100 0.0 103220
19:00−13сз43506 0.0 103515
22:00−12сз339151 0.0 103416